KA7EII-13 Weather Reports


time (UTC)temp
C
wind
direction
speed
KPH
gust
KPH
rain 1hr
cm
rain 24hr
cm
rain mn
cm
humidity
%
barometer
mb
20260502195757 22 311 8.0 12.9 0.00 0.00 0.00 24 1107.8
20260502195254 22 355 8.0 16.1 0.00 0.00 0.00 25 1108.1
20260502194750 21 162 3.2 3.2 0.00 0.00 0.00 24 1108.2
20260502194248 21 71 4.8 12.9 0.00 0.00 0.00 25 1108.2
20260502193743 21 155 3.2 4.8 0.00 0.00 0.00 23 1108.3
20260502193240 21 259 4.8 9.7 0.00 0.00 0.00 23 1108.1
20260502192735 21 356 9.7 12.9 0.00 0.00 0.00 23 1108.2
20260502192233 22 280 6.4 12.9 0.00 0.00 0.00 23 1108.4
20260502191729 21 167 4.8 12.9 0.00 0.00 0.00 26 1108.3
20260502191227 21 172 1.6 11.3 0.00 0.00 0.00 27 1108.4
20260502190724 21 25 4.8 9.7 0.00 0.00 0.00 25 1108.4
20260502190222 21 231 4.8 11.3 0.00 0.00 0.00 26 1108.6
20260502185721 21 316 3.2 8.0 0.00 0.00 0.00 28 1108.6
20260502185218 21 286 3.2 8.0 0.00 0.00 0.00 27 1108.7
20260502184714 20 53 4.8 4.8 0.00 0.00 0.00 28 1108.7
20260502184210 21 180 0.0 8.0 0.00 0.00 0.00 27 1109.1
20260502183707 21 268 6.4 9.7 0.00 0.00 0.00 25 1109.2
20260502183203 21 243 3.2 3.2 0.00 0.00 0.00 24 1109.1
20260502182658 21 4 3.2 8.0 0.00 0.00 0.00 25 1109.2
20260502182154 21 273 3.2 4.8 0.00 0.00 0.00 29 1109.0
20260502181652 20 305 3.2 4.8 0.00 0.00 0.00 29 1109.2
20260502181151 20 141 1.6 3.2 0.00 0.00 0.00 30 1109.3
20260502180647 20 194 4.8 8.0 0.00 0.00 0.00 31 1109.2
20260502180144 20 217 3.2 11.3 0.00 0.00 0.00 31 1109.4
20260502170109 17 345 1.6 4.8 0.00 0.00 0.00 35 1109.8
20260502164055 16 19 0.0 4.8 0.00 0.00 0.00 36 1110.1
20260502163551 15 351 3.2 4.8 0.00 0.00 0.00 36 1110.1
20260502163048 15 357 1.6 1.6 0.00 0.00 0.00 37 1110.1
20260502162545 15 347 4.8 8.0 0.00 0.00 0.00 38 1110.1
20260502162042 14 1 3.2 3.2 0.00 0.00 0.00 39 1110.3
20260502161539 15 5 3.2 3.2 0.00 0.00 0.00 40 1110.1
20260502161036 14 0 4.8 4.8 0.00 0.00 0.00 40 1110.2
20260502160534 14 230 1.6 3.2 0.00 0.00 0.00 42 1110.2
20260502151947 12 1 6.4 8.0 0.00 0.00 0.00 47 1110.1
20260502151444 11 17 1.6 8.0 0.00 0.00 0.00 48 1110.2
20260502150941 12 353 3.2 4.8 0.00 0.00 0.00 48 1110.1
20260502150438 12 286 1.6 3.2 0.00 0.00 0.00 48 1110.2
20260502130323 1 195 0.0 0.0 0.00 0.00 0.00 81 1109.7
20260502123809 0 192 0.0 0.0 0.00 0.00 0.00 88 1110.0
20260502123306 0 193 0.0 0.0 0.00 0.00 0.00 87 1109.5
20260502122802 0 193 0.0 0.0 0.00 0.00 0.00 86 1109.8
20260502122259 0 193 0.0 0.0 0.00 0.00 0.00 87 1109.8
20260502121757 0 193 0.0 0.0 0.00 0.00 0.00 86 1109.9
20260502121254 0 193 0.0 0.0 0.00 0.00 0.00 86 1109.7
20260502120751 0 193 0.0 0.0 0.00 0.00 0.00 88 1109.8
20260502120248 0 193 0.0 1.6 0.00 0.00 0.00 89 1109.7
20260502115746 0 194 0.0 0.0 0.00 0.00 0.00 87 1109.9
20260502115242 0 194 0.0 0.0 0.00 0.00 0.00 88 1109.9
20260502114738 0 194 0.0 0.0 0.00 0.00 0.00 89 1109.8
20260502114235 0 194 0.0 0.0 0.00 0.00 0.00 87 1109.8
20260502113732 0 194 0.0 0.0 0.00 0.00 0.00 86 1109.8
20260502113230 0 194 0.0 0.0 0.00 0.00 0.00 86 1109.8
20260502112728 0 194 0.0 0.0 0.00 0.00 0.00 83 1109.9
20260502112226 0 194 0.0 0.0 0.00 0.00 0.00 82 1110.0
20260502111722 0 194 0.0 0.0 0.00 0.00 0.00 82 1110.0
20260502111220 0 194 0.0 0.0 0.00 0.00 0.00 83 1110.2
20260502110717 0 194 0.0 0.0 0.00 0.00 0.00 83 1109.9
20260502110215 0 194 0.0 0.0 0.00 0.00 0.00 83 1109.9
20260502105713 0 194 0.0 0.0 0.00 0.00 0.00 84 1109.9
20260502105209 0 194 0.0 0.0 0.00 0.00 0.00 83 1110.0
20260502104706 0 194 0.0 0.0 0.00 0.00 0.00 82 1109.9
20260502104204 0 194 0.0 0.0 0.00 0.00 0.00 81 1110.1
20260502103701 0 194 0.0 0.0 0.00 0.00 0.00 79 1109.9
20260502103159 1 194 0.0 0.0 0.00 0.00 0.00 79 1110.1
20260502102655 1 193 0.0 1.6 0.00 0.00 0.00 78 1109.9
20260502102152 1 189 0.0 0.0 0.00 0.00 0.00 77 1110.0
20260502101650 1 189 0.0 1.6 0.00 0.00 0.00 77 1110.0
20260502101148 1 188 0.0 1.6 0.00 0.00 0.00 76 1109.8
20260502100646 1 188 0.0 0.0 0.00 0.00 0.00 75 1109.7
20260502100144 1 188 0.0 0.0 0.00 0.00 0.00 75 1109.8
20260502091118 2 188 0.0 0.0 0.00 0.00 0.00 74 1109.8
20260502090616 2 187 0.0 0.0 0.00 0.00 0.00 72 1109.9
20260502090113 2 187 0.0 0.0 0.00 0.00 0.00 72 1109.7
20260502071510 3 196 0.0 0.0 0.00 0.00 0.00 65 1109.5
20260502071008 3 196 0.0 0.0 0.00 0.00 0.00 65 1109.5
20260502070506 4 196 0.0 0.0 0.00 0.00 0.00 65 1109.4
20260502070004 4 196 0.0 1.6 0.00 0.00 0.00 65 1109.5
20260502065502 4 195 0.0 0.0 0.00 0.00 0.00 64 1109.3
20260502065000 4 196 0.0 0.0 0.00 0.00 0.00 64 1109.2
20260502064458 5 195 0.0 0.0 0.00 0.00 0.00 63 1109.4
20260502063954 5 195 0.0 0.0 0.00 0.00 0.00 62 1109.4
20260502063452 5 196 0.0 1.6 0.00 0.00 0.00 62 1109.4
20260502062950 5 196 0.0 0.0 0.00 0.00 0.00 61 1109.2
20260502062446 5 196 0.0 0.0 0.00 0.00 0.00 59 1109.3
20260502061945 5 196 0.0 0.0 0.00 0.00 0.00 58 1109.2
20260502061443 5 196 0.0 0.0 0.00 0.00 0.00 59 1109.4
20260502060939 5 196 0.0 0.0 0.00 0.00 0.00 59 1109.2
20260502060434 5 196 0.0 0.0 0.00 0.00 0.00 61 1109.1
20260502055926 5 196 0.0 0.0 0.00 0.00 0.00 60 1109.3
20260502055423 5 196 0.0 0.0 0.00 0.00 0.00 59 1109.2
20260502054923 5 197 0.0 0.0 0.00 0.00 0.00 59 1109.3
20260502054420 5 197 0.0 0.0 0.00 0.00 0.00 58 1109.1
20260502053918 5 197 0.0 0.0 0.00 0.00 0.00 58 1109.2
20260502053415 5 197 0.0 0.0 0.00 0.00 0.00 57 1109.2
20260502052913 6 197 0.0 0.0 0.00 0.00 0.00 57 1109.3
20260502052411 6 198 0.0 0.0 0.00 0.00 0.00 57 1109.4
20260502051908 6 198 0.0 0.0 0.00 0.00 0.00 56 1109.2
20260502051406 6 198 0.0 0.0 0.00 0.00 0.00 56 1109.0
20260502050903 6 199 0.0 0.0 0.00 0.00 0.00 56 1109.2
20260502050359 6 199 0.0 0.0 0.00 0.00 0.00 55 1109.0
20260502045857 6 202 0.0 0.0 0.00 0.00 0.00 55 1109.2
20260502045353 6 202 0.0 1.6 0.00 0.00 0.00 54 1109.2
20260502044850 6 200 0.0 0.0 0.00 0.00 0.00 52 1109.4
20260502044345 7 200 0.0 0.0 0.00 0.00 0.00 52 1109.2
20260502043843 7 201 0.0 1.6 0.00 0.00 0.00 51 1109.2
20260502043340 7 189 0.0 1.6 0.00 0.00 0.00 50 1109.2
20260502042840 7 188 0.0 3.2 0.00 0.00 0.00 49 1109.4
20260502042337 7 188 0.0 0.0 0.00 0.00 0.00 52 1109.0
20260502041835 7 188 0.0 0.0 0.00 0.00 0.00 51 1109.3
20260502041332 8 188 0.0 0.0 0.00 0.00 0.00 50 1109.2
20260502040829 8 187 0.0 1.6 0.00 0.00 0.00 49 1109.2
20260502040326 8 186 0.0 0.0 0.00 0.00 0.00 47 1109.2
20260502035822 9 186 0.0 0.0 0.00 0.00 0.00 45 1109.2
20260502035319 9 186 0.0 0.0 0.00 0.00 0.00 45 1109.0
20260502034816 10 186 1.6 1.6 0.00 0.00 0.00 44 1109.0
20260502034315 10 187 1.6 1.6 0.00 0.00 0.00 43 1109.1
20260502033812 10 195 0.0 0.0 0.00 0.00 0.00 43 1109.1
20260502033309 10 195 0.0 0.0 0.00 0.00 0.00 42 1108.6
20260502032806 11 195 0.0 0.0 0.00 0.00 0.00 41 1108.9
20260502032305 11 195 0.0 0.0 0.00 0.00 0.00 38 1108.6
20260502031800 12 195 0.0 1.6 0.00 0.00 0.00 36 1108.6
20260502031258 12 200 1.6 3.2 0.00 0.00 0.00 35 1108.5
20260502030756 11 208 0.0 1.6 0.00 0.00 0.00 37 1108.5
20260502030254 12 208 0.0 0.0 0.00 0.00 0.00 34 1108.5
20260502025751 12 208 0.0 0.0 0.00 0.00 0.00 33 1108.4
20260502025249 13 208 0.0 0.0 0.00 0.00 0.00 31 1108.2
20260502024746 13 208 0.0 0.0 0.00 0.00 0.00 30 1108.1
20260502024244 14 210 0.0 1.6 0.00 0.00 0.00 29 1108.2
20260502023742 14 210 0.0 0.0 0.00 0.00 0.00 28 1108.4
20260502023239 15 212 0.0 1.6 0.00 0.00 0.00 27 1108.3
20260502022737 15 214 0.0 1.6 0.00 0.00 0.00 27 1108.3
20260502022233 15 217 0.0 1.6 0.00 0.00 0.00 27 1108.2
20260502021730 15 221 0.0 0.0 0.00 0.00 0.00 28 1108.4
20260502021228 15 224 0.0 0.0 0.00 0.00 0.00 26 1108.3
20260502020724 16 225 0.0 0.0 0.00 0.00 0.00 24 1108.2
20260502020221 16 228 0.0 0.0 0.00 0.00 0.00 23 1108.3
20260502015720 16 231 0.0 0.0 0.00 0.00 0.00 20 1108.2
20260502015215 17 242 0.0 0.0 0.00 0.00 0.00 20 1108.3
20260502014713 17 245 0.0 1.6 0.00 0.00 0.00 19 1108.1
20260502014210 17 232 0.0 1.6 0.00 0.00 0.00 21 1108.3
20260502013706 17 211 0.0 1.6 0.00 0.00 0.00 21 1108.2
20260502013201 17 258 0.0 3.2 0.00 0.00 0.00 19 1108.3
20260502012659 18 226 0.0 1.6 0.00 0.00 0.00 18 1108.2
20260502012157 18 290 0.0 3.2 0.00 0.00 0.00 19 1108.2
20260502011653 18 225 1.6 3.2 0.00 0.00 0.00 18 1108.4
20260502011149 18 345 4.8 4.8 0.00 0.00 0.00 17 1108.3
20260502010647 18 301 0.0 3.2 0.00 0.00 0.00 19 1108.4
20260502010143 18 329 1.6 4.8 0.00 0.00 0.00 18 1108.3
20260502005641 18 336 3.2 4.8 0.00 0.00 0.00 18 1108.4
20260502005138 19 340 4.8 8.0 0.00 0.00 0.00 19 1108.3
20260502004634 20 331 1.6 3.2 0.00 0.00 0.00 17 1108.4
20260502004131 19 244 1.6 4.8 0.00 0.00 0.00 19 1108.5
20260502003629 19 281 3.2 4.8 0.00 0.00 0.00 21 1108.6
20260502003126 20 303 1.6 4.8 0.00 0.00 0.00 20 1108.4
20260502002622 20 239 1.6 3.2 0.00 0.00 0.00 23 1108.3
20260502002119 20 329 3.2 4.8 0.00 0.00 0.00 23 1108.5
20260502001617 20 323 3.2 4.8 0.00 0.00 0.00 19 1108.5
20260502001114 20 208 0.0 1.6 0.00 0.00 0.00 21 1108.5
20260502000612 20 344 6.4 8.0 0.00 0.00 0.00 22 1108.3
20260502000109 20 234 3.2 3.2 0.00 0.00 0.00 23 1108.5
20260501235605 20 242 0.0 1.6 0.00 0.00 0.00 20 1108.5
20260501235101 20 348 4.8 8.0 0.00 0.00 0.00 19 1108.5
20260501234556 19 329 4.8 4.8 0.00 0.00 0.00 21 1108.5
20260501234055 20 328 4.8 8.0 0.00 0.00 0.00 19 1108.5
20260501233553 20 200 1.6 3.2 0.00 0.00 0.00 22 1108.6
20260501233049 20 336 3.2 9.7 0.00 0.00 0.00 21 1108.4
20260501232545 20 239 1.6 8.0 0.00 0.00 0.00 22 1108.5
20260501232043 19 210 0.0 4.8 0.00 0.00 0.00 23 1108.6
20260501231540 19 28 4.8 9.7 0.00 0.00 0.00 23 1108.4
20260501231039 20 338 3.2 8.0 0.00 0.00 0.00 22 1108.5
20260501230537 20 187 3.2 4.8 0.00 0.00 0.00 23 1108.5
20260501230035 20 229 4.8 4.8 0.00 0.00 0.00 23 1108.7
20260501225532 20 274 3.2 4.8 0.00 0.00 0.00 23 1109.1
20260501225028 20 238 4.8 9.7 0.00 0.00 0.00 25 1109.0
20260501224526 20 6 1.6 4.8 0.00 0.00 0.00 23 1108.6
20260501224023 20 267 6.4 9.7 0.00 0.00 0.00 23 1109.1
20260501223519 20 89 3.2 4.8 0.00 0.00 0.00 23 1109.0
20260501223015 20 251 4.8 8.0 0.00 0.00 0.00 22 1109.2
20260501222511 20 41 3.2 4.8 0.00 0.00 0.00 22 1109.0
20260501222009 20 355 3.2 8.0 0.00 0.00 0.00 23 1108.7
20260501221505 19 162 3.2 3.2 0.00 0.00 0.00 24 1109.0
20260501221003 20 323 3.2 8.0 0.00 0.00 0.00 22 1109.2
20260501220500 20 311 3.2 4.8 0.00 0.00 0.00 21 1109.2
20260501215956 19 229 4.8 9.7 0.00 0.00 0.00 23 1109.4
20260501215453 18 281 3.2 3.2 0.00 0.00 0.00 24 1109.3
20260501214948 19 212 3.2 8.0 0.00 0.00 0.00 27 1109.7
20260501214444 19 200 1.6 1.6 0.00 0.00 0.00 26 1109.4
20260501213940 19 266 1.6 8.0 0.00 0.00 0.00 25 1109.5
20260501213437 18 358 6.4 9.7 0.00 0.00 0.00 26 1109.7
20260501212932 19 308 3.2 8.0 0.00 0.00 0.00 26 1110.0
20260501212430 19 279 1.6 4.8 0.00 0.00 0.00 24 1109.9
20260501211926 19 234 3.2 4.8 0.00 0.00 0.00 29 1109.9
20260501211424 19 267 4.8 12.9 0.00 0.00 0.00 26 1110.0
20260501210921 19 250 1.6 3.2 0.00 0.00 0.00 28 1109.9
20260501210418 18 343 1.6 1.6 0.00 0.00 0.00 27 1110.0
20260501205914 18 359 4.8 12.9 0.00 0.00 0.00 28 1109.5
20260501205411 18 183 0.0 3.2 0.00 0.00 0.00 27 1110.0
20260501204908 18 306 3.2 9.7 0.00 0.00 0.00 28 1110.2
20260501204404 18 66 1.6 4.8 0.00 0.00 0.00 29 1110.1
20260501203900 18 12 11.3 14.5 0.00 0.00 0.00 28 1110.2
20260501203358 18 215 0.0 11.3 0.00 0.00 0.00 29 1110.2
20260501202855 18 10 9.7 11.3 0.00 0.00 0.00 28 1110.0
20260501202352 18 194 1.6 4.8 0.00 0.00 0.00 30 1110.2
20260501201848 18 220 1.6 3.2 0.00 0.00 0.00 27 1110.0
20260501201345 18 311 1.6 4.8 0.00 0.00 0.00 27 1110.2
20260501200842 18 267 6.4 11.3 0.00 0.00 0.00 30 1110.2
20260501200339 17 190 0.0 3.2 0.00 0.00 0.00 28 1110.3
20260501195837 18 252 6.4 11.3 0.00 0.00 0.00 29 1110.3